INTELSAT 30 (IS-30) (40271 NORAD) Tracking and Keplerian Element Data

This shows tracking and keplerian element data for the satellite.

Feedback or suggestion? Click here.




ElementValue
Catalog40271
NameINTELSAT 30 (IS-30)
Epoch Orbit1772
Epoch Day228.08635206
Epoch Year2019
RAAN89.9842
Inclination0.013
Eccentricity0.0001857
Argument of Perigee349.1177
Mean Anonmoly181.1069
Mean Motion1.00272902
Decay Rate-1.66E-06
L11 40271U 14062A 19228.08635206 -.00000166 00000-0 00000+0 0 9992
L22 40271 0.0130 89.9842 0001857 349.1177 181.1069 1.00272902 17729

Live tracking and technical data element details for INTELSAT 30 (IS-30) (NORAD 40271). INTELSAT 30 (IS-30) can be tracked NOW for your location showing map with azimuth and elevation plus other details from your city location.

Track the satellite on the map from your city or location and see movement details for azimuth, elevation, latitude, longitude, range, height, and movement on the map or in text.







IsCatalogInMostPopularTable: catalog: 40271, numindb: 295
Update: records affected: 1



GetName: 40271 INTELSAT 30 (IS-30)

Hit Count: updated at: Wed, 21 Aug 2019 11:08:55 GMT